Time,TemperatureF,DewpointF,PressureIn,WindDirection,WindDirectionDegrees,WindSpeedMPH,WindSpeedGustMPH,Humidity,HourlyPrecipIn,Conditions,Clouds,dailyrainin,SoftwareType,DateUTC
2013-01-03 00:01:00,-12.0,-13.0,30.22,North,0,9.0,13.0,92,-99.99,,,-99.99,,2013-01-03 07:01:00,
2013-01-03 00:06:00,-12.0,-13.0,30.22,NW,320,11.0,11.0,92,-99.99,,,-99.99,,2013-01-03 07:06:00,
2013-01-03 00:11:00,-12.0,-14.0,30.22,NNW,340,13.0,13.0,92,-99.99,,,-99.99,,2013-01-03 07:11:00,
2013-01-03 00:21:00,-13.0,-14.0,30.22,NNW,340,8.0,12.0,92,-99.99,,,-99.99,,2013-01-03 07:21:00,
2013-01-03 00:26:00,-13.0,-14.0,30.22,WNW,300,10.0,13.0,92,-99.99,,,-99.99,,2013-01-03 07:26:00,
2013-01-03 00:36:00,-12.0,-14.0,30.22,North,350,8.0,13.0,93,-99.99,,,-99.99,,2013-01-03 07:36:00,
2013-01-03 00:46:00,-13.0,-14.0,30.23,North,350,10.0,10.0,92,-99.99,,,-99.99,,2013-01-03 07:46:00,
2013-01-03 00:51:00,-13.0,-14.0,30.23,North,10,9.0,11.0,92,-99.99,,,-99.99,,2013-01-03 07:51:00,
2013-01-03 00:56:00,-12.0,-14.0,30.23,North,10,8.0,12.0,92,-99.99,,,-99.99,,2013-01-03 07:56:00,
2013-01-03 01:01:00,-12.0,-14.0,30.23,WNW,300,0.0,10.0,92,-99.99,,,-99.99,,2013-01-03 08:01:00,
2013-01-03 01:11:00,-12.0,-14.0,30.23,WNW,300,0.0,0.0,92,-99.99,,,-99.99,,2013-01-03 08:11:00,
2013-01-03 01:21:00,-13.0,-14.0,30.23,WNW,300,0.0,0.0,91,-99.99,,,-99.99,,2013-01-03 08:21:00,
2013-01-03 01:26:00,-13.0,-15.0,30.24,WNW,300,0.0,0.0,91,-99.99,,,-99.99,,2013-01-03 08:26:00,
2013-01-03 01:31:00,-14.0,-16.0,30.24,WNW,300,0.0,0.0,90,-99.99,,,-99.99,,2013-01-03 08:31:00,
2013-01-03 01:41:00,-15.0,-17.0,30.24,NNW,330,6.0,9.0,90,-99.99,,,-99.99,,2013-01-03 08:41:00,
2013-01-03 01:51:00,-15.0,-16.0,30.24,NNW,340,8.0,11.0,91,-99.99,,,-99.99,,2013-01-03 08:51:00,
2013-01-03 02:01:00,-15.0,-17.0,30.24,North,10,5.0,7.0,90,-99.99,,,-99.99,,2013-01-03 09:01:00,
2013-01-03 02:06:00,-15.0,-17.0,30.24,North,0,0.0,7.0,91,-99.99,,,-99.99,,2013-01-03 09:06:00,
2013-01-03 02:11:00,-15.0,-17.0,30.24,North,0,0.0,6.0,91,-99.99,,,-99.99,,2013-01-03 09:11:00,
2013-01-03 02:21:00,-15.0,-17.0,30.25,North,0,0.0,0.0,91,-99.99,,,-99.99,,2013-01-03 09:21:00,
2013-01-03 02:26:00,-15.0,-17.0,30.25,North,0,0.0,0.0,91,-99.99,,,-99.99,,2013-01-03 09:26:00,
2013-01-03 02:36:00,-16.0,-18.0,30.25,North,0,0.0,0.0,91,-99.99,,,-99.99,,2013-01-03 09:36:00,
2013-01-03 02:41:00,-16.0,-18.0,30.26,North,0,9.0,9.0,91,-99.99,,,-99.99,,2013-01-03 09:41:00,
2013-01-03 02:46:00,-16.0,-18.0,30.26,North,350,9.0,9.0,91,-99.99,,,-99.99,,2013-01-03 09:46:00,
2013-01-03 02:51:00,-16.0,-17.0,30.26,North,350,7.0,10.0,91,-99.99,,,-99.99,,2013-01-03 09:51:00,
2013-01-03 02:56:00,-16.0,-17.0,30.26,North,350,3.0,8.0,91,-99.99,,,-99.99,,2013-01-03 09:56:00,
2013-01-03 03:06:00,-16.0,-18.0,30.25,North,0,5.0,0.0,91,-99.99,,,-99.99,,2013-01-03 10:06:00,
2013-01-03 03:16:00,-16.0,-18.0,30.25,North,350,5.0,7.0,91,-99.99,,,-99.99,,2013-01-03 10:16:00,
2013-01-03 03:26:00,-17.0,-19.0,30.25,NNW,340,0.0,0.0,90,-99.99,,,-99.99,,2013-01-03 10:26:00,
2013-01-03 03:31:00,-17.0,-20.0,30.25,NNW,340,3.0,3.0,89,-99.99,,,-99.99,,2013-01-03 10:31:00,
2013-01-03 03:36:00,-18.0,-20.0,30.25,North,350,5.0,5.0,89,-99.99,,,-99.99,,2013-01-03 10:36:00,
2013-01-03 03:41:00,-18.0,-20.0,30.25,North,350,0.0,6.0,90,-99.99,,,-99.99,,2013-01-03 10:41:00,
2013-01-03 03:51:00,-18.0,-20.0,30.26,North,350,0.0,5.0,90,-99.99,,,-99.99,,2013-01-03 10:51:00,
2013-01-03 03:56:00,-18.0,-20.0,30.26,North,350,0.0,0.0,89,-99.99,,,-99.99,,2013-01-03 10:56:00,
2013-01-03 04:06:00,-19.0,-21.0,30.26,North,350,3.0,6.0,89,-99.99,,,-99.99,,2013-01-03 11:06:00,
2013-01-03 04:11:00,-19.0,-21.0,30.25,North,350,0.0,5.0,89,-99.99,,,-99.99,,2013-01-03 11:11:00,
2013-01-03 04:16:00,-20.0,-22.0,30.25,North,350,0.0,5.0,88,-99.99,,,-99.99,,2013-01-03 11:16:00,
2013-01-03 04:21:00,-20.0,-23.0,30.25,North,350,0.0,0.0,88,-99.99,,,-99.99,,2013-01-03 11:21:00,
2013-01-03 04:31:00,-20.0,-22.0,30.25,North,350,0.0,0.0,89,-99.99,,,-99.99,,2013-01-03 11:31:00,
2013-01-03 04:36:00,-20.0,-23.0,30.26,North,350,0.0,0.0,89,-99.99,,,-99.99,,2013-01-03 11:36:00,
2013-01-03 04:46:00,-21.0,-24.0,30.26,North,350,0.0,0.0,88,-99.99,,,-99.99,,2013-01-03 11:46:00,
2013-01-03 04:51:00,-22.0,-24.0,30.26,North,350,0.0,0.0,89,-99.99,,,-99.99,,2013-01-03 11:51:00,
2013-01-03 04:56:00,-21.0,-23.0,30.26,North,350,0.0,0.0,90,-99.99,,,-99.99,,2013-01-03 11:56:00,
2013-01-03 05:06:00,-21.0,-22.0,30.26,North,350,0.0,0.0,91,-99.99,,,-99.99,,2013-01-03 12:06:00,
2013-01-03 05:11:00,-21.0,-23.0,30.26,North,350,7.0,8.0,90,-99.99,,,-99.99,,2013-01-03 12:11:00,
2013-01-03 05:21:00,-20.0,-22.0,30.26,North,0,0.0,8.0,91,-99.99,,,-99.99,,2013-01-03 12:21:00,
2013-01-03 05:31:00,-20.0,-22.0,30.26,North,0,0.0,0.0,91,-99.99,,,-99.99,,2013-01-03 12:31:00,
2013-01-03 05:36:00,-20.0,-22.0,30.27,North,0,0.0,0.0,91,-99.99,,,-99.99,,2013-01-03 12:36:00,
2013-01-03 05:41:00,-20.0,-22.0,30.27,North,0,0.0,0.0,91,-99.99,,,-99.99,,2013-01-03 12:41:00,
2013-01-03 05:46:00,-21.0,-23.0,30.27,North,0,0.0,0.0,90,-99.99,,,-99.99,,2013-01-03 12:46:00,
2013-01-03 05:56:00,-21.0,-23.0,30.27,North,0,0.0,0.0,90,-99.99,,,-99.99,,2013-01-03 12:56:00,
2013-01-03 06:01:00,-21.0,-22.0,30.28,North,0,0.0,0.0,91,-99.99,,,-99.99,,2013-01-03 13:01:00,
2013-01-03 06:11:00,-21.0,-22.0,30.27,North,0,0.0,0.0,91,-99.99,,,-99.99,,2013-01-03 13:11:00,
2013-01-03 06:16:00,-21.0,-23.0,30.27,North,0,0.0,0.0,91,-99.99,,,-99.99,,2013-01-03 13:16:00,
2013-01-03 06:21:00,-21.0,-23.0,30.27,North,0,0.0,0.0,91,-99.99,,,-99.99,,2013-01-03 13:21:00,
2013-01-03 06:31:00,-21.0,-22.0,30.28,North,0,0.0,0.0,91,-99.99,,,-99.99,,2013-01-03 13:31:00,
2013-01-03 06:36:00,-21.0,-23.0,30.28,North,0,0.0,0.0,91,-99.99,,,-99.99,,2013-01-03 13:36:00,
2013-01-03 06:46:00,-21.0,-23.0,30.28,North,0,0.0,0.0,90,-99.99,,,-99.99,,2013-01-03 13:46:00,
2013-01-03 06:51:00,-22.0,-24.0,30.29,North,0,0.0,0.0,90,-99.99,,,-99.99,,2013-01-03 13:51:00,
2013-01-03 06:56:00,-22.0,-24.0,30.29,North,0,0.0,0.0,90,-99.99,,,-99.99,,2013-01-03 13:56:00,
2013-01-03 07:01:00,-22.0,-24.0,30.29,North,0,0.0,0.0,90,-99.99,,,-99.99,,2013-01-03 14:01:00,
2013-01-03 07:06:00,-22.0,-24.0,30.29,North,0,0.0,0.0,90,-99.99,,,-99.99,,2013-01-03 14:06:00,
2013-01-03 07:16:00,-22.0,-24.0,30.29,North,0,0.0,0.0,91,-99.99,,,-99.99,,2013-01-03 14:16:00,
2013-01-03 07:26:00,-21.0,-23.0,30.29,North,0,0.0,0.0,91,-99.99,,,-99.99,,2013-01-03 14:26:00,
2013-01-03 07:36:00,-21.0,-22.0,30.29,North,0,0.0,0.0,92,-99.99,,,-99.99,,2013-01-03 14:36:00,
2013-01-03 07:41:00,-21.0,-23.0,30.29,North,0,0.0,0.0,91,-99.99,,,-99.99,,2013-01-03 14:41:00,
2013-01-03 07:46:00,-21.0,-23.0,30.29,North,0,0.0,0.0,91,-99.99,,,-99.99,,2013-01-03 14:46:00,
2013-01-03 07:51:00,-21.0,-23.0,30.29,North,0,0.0,0.0,91,-99.99,,,-99.99,,2013-01-03 14:51:00,
2013-01-03 08:01:00,-20.0,-22.0,30.29,North,0,0.0,0.0,92,-99.99,,,-99.99,,2013-01-03 15:01:00,
2013-01-03 08:06:00,-20.0,-22.0,30.29,North,0,0.0,0.0,92,-99.99,,,-99.99,,2013-01-03 15:06:00,
2013-01-03 08:16:00,-19.0,-21.0,30.29,North,0,0.0,0.0,92,-99.99,,,-99.99,,2013-01-03 15:16:00,
2013-01-03 08:21:00,-19.0,-20.0,30.30,North,0,0.0,0.0,93,-99.99,,,-99.99,,2013-01-03 15:21:00,
2013-01-03 08:26:00,-18.0,-20.0,30.30,North,0,0.0,0.0,93,-99.99,,,-99.99,,2013-01-03 15:26:00,
2013-01-03 08:36:00,-18.0,-20.0,30.31,North,0,0.0,0.0,92,-99.99,,,-99.99,,2013-01-03 15:36:00,
2013-01-03 08:41:00,-19.0,-20.0,30.31,North,0,0.0,0.0,91,-99.99,,,-99.99,,2013-01-03 15:41:00,
2013-01-03 08:51:00,-18.0,-20.0,30.31,North,0,0.0,0.0,91,-99.99,,,-99.99,,2013-01-03 15:51:00,
2013-01-03 08:56:00,-17.0,-19.0,30.31,North,0,0.0,0.0,92,-99.99,,,-99.99,,2013-01-03 15:56:00,
2013-01-03 09:06:00,-16.0,-18.0,30.31,North,0,0.0,0.0,92,-99.99,,,-99.99,,2013-01-03 16:06:00,
2013-01-03 09:11:00,-15.0,-17.0,30.32,North,0,0.0,0.0,92,-99.99,,,-99.99,,2013-01-03 16:11:00,
2013-01-03 09:21:00,-14.0,-15.0,30.32,North,0,0.0,0.0,92,-99.99,,,-99.99,,2013-01-03 16:21:00,
2013-01-03 09:31:00,-13.0,-15.0,30.33,North,0,0.0,0.0,92,-99.99,,,-99.99,,2013-01-03 16:31:00,
2013-01-03 09:41:00,-12.0,-14.0,30.33,North,0,0.0,0.0,92,-99.99,,,-99.99,,2013-01-03 16:41:00,
2013-01-03 09:51:00,-12.0,-13.0,30.33,North,0,0.0,0.0,92,-99.99,,,-99.99,,2013-01-03 16:51:00,
2013-01-03 09:56:00,-11.0,-13.0,30.33,North,0,0.0,0.0,92,-99.99,,,-99.99,,2013-01-03 16:56:00,
2013-01-03 10:06:00,-10.0,-12.0,30.33,North,0,0.0,0.0,91,-99.99,,,-99.99,,2013-01-03 17:06:00,
2013-01-03 10:11:00,-10.0,-12.0,30.34,North,0,0.0,0.0,91,-99.99,,,-99.99,,2013-01-03 17:11:00,
2013-01-03 10:16:00,-10.0,-12.0,30.34,North,0,0.0,0.0,90,-99.99,,,-99.99,,2013-01-03 17:16:00,
2013-01-03 10:21:00,-10.0,-12.0,30.34,North,0,0.0,0.0,90,-99.99,,,-99.99,,2013-01-03 17:21:00,
2013-01-03 10:31:00,-9.0,-11.0,30.34,North,0,0.0,0.0,90,-99.99,,,-99.99,,2013-01-03 17:31:00,
2013-01-03 10:36:00,-8.0,-10.0,30.34,North,0,0.0,0.0,90,-99.99,,,-99.99,,2013-01-03 17:36:00,
2013-01-03 10:46:00,-7.0,-9.0,30.34,North,0,0.0,0.0,90,-99.99,,,-99.99,,2013-01-03 17:46:00,
2013-01-03 10:51:00,-7.0,-9.0,30.33,North,0,0.0,0.0,90,-99.99,,,-99.99,,2013-01-03 17:51:00,
2013-01-03 10:56:00,-6.0,-9.0,30.33,North,0,0.0,0.0,90,-99.99,,,-99.99,,2013-01-03 17:56:00,
2013-01-03 11:01:00,-6.0,-8.0,30.33,WNW,300,6.0,7.0,89,-99.99,,,-99.99,,2013-01-03 18:01:00,
2013-01-03 11:11:00,-5.0,-8.0,30.32,NW,320,0.0,6.0,89,-99.99,,,-99.99,,2013-01-03 18:11:00,
2013-01-03 11:16:00,-5.0,-7.0,30.32,WNW,300,4.0,6.0,89,-99.99,,,-99.99,,2013-01-03 18:16:00,
2013-01-03 11:26:00,-4.0,-7.0,30.32,West,270,2.0,5.0,89,-99.99,,,-99.99,,2013-01-03 18:26:00,
2013-01-03 11:31:00,-4.0,-6.0,30.32,West,280,3.0,6.0,88,-99.99,,,-99.99,,2013-01-03 18:31:00,
2013-01-03 11:36:00,-3.0,-6.0,30.31,North,0,0.0,6.0,88,-99.99,,,-99.99,,2013-01-03 18:36:00,
2013-01-03 11:41:00,-3.0,-6.0,30.31,North,350,0.0,5.0,87,-99.99,,,-99.99,,2013-01-03 18:41:00,
2013-01-03 11:51:00,-2.0,-5.0,30.30,North,350,0.0,0.0,86,-99.99,,,-99.99,,2013-01-03 18:51:00,
2013-01-03 11:56:00,-2.0,-5.0,30.29,North,350,0.0,0.0,86,-99.99,,,-99.99,,2013-01-03 18:56:00,
2013-01-03 12:01:00,-1.0,-4.0,30.29,North,350,0.0,0.0,86,-99.99,,,-99.99,,2013-01-03 19:01:00,
2013-01-03 12:11:00,1.0,-2.0,30.29,North,350,0.0,0.0,86,-99.99,,,-99.99,,2013-01-03 19:11:00,
2013-01-03 12:51:00,3.0,-1.0,30.27,South,190,0.0,0.0,81,-99.99,,,-99.99,,2013-01-03 19:51:00,
2013-01-03 12:56:00,4.0,-1.0,30.27,SSW,200,0.0,0.0,81,-99.99,,,-99.99,,2013-01-03 19:56:00,
2013-01-03 13:01:00,4.0,0.0,30.27,SSW,200,0.0,3.0,83,-99.99,,,-99.99,,2013-01-03 20:01:00,
2013-01-03 13:06:00,5.0,1.0,30.27,SSW,200,0.0,0.0,83,-99.99,,,-99.99,,2013-01-03 20:06:00,
2013-01-03 13:16:00,6.0,1.0,30.27,SSW,200,0.0,0.0,82,-99.99,,,-99.99,,2013-01-03 20:16:00,
2013-01-03 13:21:00,6.0,1.0,30.27,SSW,200,0.0,0.0,81,-99.99,,,-99.99,,2013-01-03 20:21:00,
2013-01-03 13:26:00,6.0,1.0,30.27,South,190,4.0,5.0,80,-99.99,,,-99.99,,2013-01-03 20:26:00,
2013-01-03 13:31:00,6.0,1.0,30.27,South,190,3.0,4.0,80,-99.99,,,-99.99,,2013-01-03 20:31:00,
2013-01-03 13:41:00,6.0,2.0,30.27,South,180,0.0,0.0,81,-99.99,,,-99.99,,2013-01-03 20:41:00,
2013-01-03 13:46:00,7.0,2.0,30.27,South,180,0.0,0.0,80,-99.99,,,-99.99,,2013-01-03 20:46:00,
2013-01-03 13:56:00,7.0,1.0,30.27,South,180,0.0,0.0,79,-99.99,,,-99.99,,2013-01-03 20:56:00,
2013-01-03 14:06:00,7.0,1.0,30.27,South,180,0.0,0.0,77,-99.99,,,-99.99,,2013-01-03 21:06:00,
2013-01-03 14:16:00,6.0,1.0,30.27,South,180,0.0,0.0,77,-99.99,,,-99.99,,2013-01-03 21:16:00,
2013-01-03 14:26:00,7.0,2.0,30.27,South,170,0.0,3.0,79,-99.99,,,-99.99,,2013-01-03 21:26:00,
2013-01-03 14:36:00,8.0,3.0,30.27,SSW,200,0.0,3.0,79,-99.99,,,-99.99,,2013-01-03 21:36:00,
2013-01-03 14:41:00,8.0,3.0,30.27,SSW,200,0.0,0.0,78,-99.99,,,-99.99,,2013-01-03 21:41:00,
2013-01-03 14:51:00,8.0,3.0,30.27,SSW,200,0.0,0.0,79,-99.99,,,-99.99,,2013-01-03 21:51:00,
2013-01-03 14:56:00,8.0,3.0,30.27,SSW,200,0.0,0.0,78,-99.99,,,-99.99,,2013-01-03 21:56:00,
2013-01-03 15:06:00,8.0,3.0,30.27,SSW,200,0.0,0.0,78,-99.99,,,-99.99,,2013-01-03 22:06:00,
2013-01-03 15:11:00,8.0,2.0,30.27,SSW,200,0.0,0.0,77,-99.99,,,-99.99,,2013-01-03 22:11:00,
2013-01-03 15:21:00,7.0,2.0,30.27,SSW,200,0.0,0.0,79,-99.99,,,-99.99,,2013-01-03 22:21:00,
2013-01-03 15:26:00,7.0,1.0,30.27,SSW,200,0.0,0.0,77,-99.99,,,-99.99,,2013-01-03 22:26:00,
2013-01-03 15:31:00,6.0,0.0,30.27,SSW,200,0.0,0.0,76,-99.99,,,-99.99,,2013-01-03 22:31:00,
2013-01-03 15:36:00,6.0,1.0,30.27,SSW,200,0.0,0.0,77,-99.99,,,-99.99,,2013-01-03 22:36:00,
2013-01-03 15:41:00,6.0,0.0,30.27,SSW,200,0.0,0.0,76,-99.99,,,-99.99,,2013-01-03 22:41:00,
2013-01-03 15:51:00,6.0,0.0,30.27,East,100,0.0,4.0,76,-99.99,,,-99.99,,2013-01-03 22:51:00,
2013-01-03 15:56:00,5.0,-1.0,30.27,East,100,0.0,3.0,77,-99.99,,,-99.99,,2013-01-03 22:56:00,
2013-01-03 16:06:00,5.0,-1.0,30.27,East,100,0.0,0.0,78,-99.99,,,-99.99,,2013-01-03 23:06:00,
2013-01-03 16:11:00,5.0,0.0,30.27,East,100,0.0,0.0,78,-99.99,,,-99.99,,2013-01-03 23:11:00,
2013-01-03 16:21:00,4.0,-1.0,30.27,WNW,300,0.0,2.0,79,-99.99,,,-99.99,,2013-01-03 23:21:00,
2013-01-03 16:26:00,4.0,-1.0,30.27,WNW,300,0.0,0.0,79,-99.99,,,-99.99,,2013-01-03 23:26:00,
2013-01-03 16:31:00,3.0,-1.0,30.27,WNW,300,0.0,0.0,80,-99.99,,,-99.99,,2013-01-03 23:31:00,
2013-01-03 16:41:00,2.0,-3.0,30.27,WNW,290,0.0,0.0,80,-99.99,,,-99.99,,2013-01-03 23:41:00,
2013-01-03 16:46:00,1.0,-4.0,30.27,WNW,290,0.0,0.0,79,-99.99,,,-99.99,,2013-01-03 23:46:00,
2013-01-03 16:56:00,0.0,-5.0,30.27,WNW,290,0.0,0.0,79,-99.99,,,-99.99,,2013-01-03 23:56:00,
2013-01-03 17:06:00,-2.0,-6.0,30.28,NNW,340,7.0,7.0,81,-99.99,,,-99.99,,2013-01-04 00:06:00,
2013-01-03 17:11:00,-2.0,-6.0,30.28,NW,320,4.0,6.0,81,-99.99,,,-99.99,,2013-01-04 00:11:00,
2013-01-03 17:16:00,-2.0,-7.0,30.28,NNW,330,0.0,6.0,81,-99.99,,,-99.99,,2013-01-04 00:16:00,
2013-01-03 17:21:00,-3.0,-8.0,30.28,NW,320,5.0,5.0,80,-99.99,,,-99.99,,2013-01-04 00:21:00,
2013-01-03 17:31:00,-5.0,-9.0,30.28,NNW,330,4.0,7.0,81,-99.99,,,-99.99,,2013-01-04 00:31:00,
2013-01-03 17:36:00,-5.0,-9.0,30.28,NW,310,0.0,5.0,82,-99.99,,,-99.99,,2013-01-04 00:36:00,
2013-01-03 17:46:00,-6.0,-10.0,30.28,NNW,340,6.0,8.0,82,-99.99,,,-99.99,,2013-01-04 00:46:00,
2013-01-03 17:51:00,-6.0,-10.0,30.28,NNW,340,9.0,9.0,82,-99.99,,,-99.99,,2013-01-04 00:51:00,
2013-01-03 18:01:00,-7.0,-10.0,30.28,NNE,20,7.0,9.0,85,-99.99,,,-99.99,,2013-01-04 01:01:00,
2013-01-03 18:11:00,-7.0,-10.0,30.28,North,350,6.0,8.0,85,-99.99,,,-99.99,,2013-01-04 01:11:00,
2013-01-03 18:16:00,-7.0,-11.0,30.28,NNW,330,8.0,8.0,85,-99.99,,,-99.99,,2013-01-04 01:16:00,
2013-01-03 18:26:00,-8.0,-11.0,30.28,NW,310,3.0,8.0,86,-99.99,,,-99.99,,2013-01-04 01:26:00,
2013-01-03 18:36:00,-7.0,-10.0,30.28,NNW,330,7.0,10.0,87,-99.99,,,-99.99,,2013-01-04 01:36:00,
2013-01-03 18:41:00,-7.0,-10.0,30.28,NNW,340,9.0,10.0,87,-99.99,,,-99.99,,2013-01-04 01:41:00,
2013-01-03 18:51:00,-7.0,-10.0,30.28,NNE,20,3.0,10.0,88,-99.99,,,-99.99,,2013-01-04 01:51:00,
2013-01-03 19:01:00,-8.0,-10.0,30.28,NNE,20,4.0,5.0,86,-99.99,,,-99.99,,2013-01-04 02:01:00,
2013-01-03 19:11:00,-8.0,-11.0,30.28,NNW,340,0.0,7.0,86,-99.99,,,-99.99,,2013-01-04 02:11:00,
2013-01-03 19:16:00,-8.0,-11.0,30.28,NNW,340,6.0,6.0,86,-99.99,,,-99.99,,2013-01-04 02:16:00,
2013-01-03 19:21:00,-9.0,-12.0,30.28,NNW,330,6.0,7.0,86,-99.99,,,-99.99,,2013-01-04 02:21:00,
2013-01-03 19:26:00,-9.0,-12.0,30.28,NNW,340,5.0,7.0,87,-99.99,,,-99.99,,2013-01-04 02:26:00,
2013-01-03 19:36:00,-10.0,-13.0,30.28,NW,320,0.0,0.0,86,-99.99,,,-99.99,,2013-01-04 02:36:00,
2013-01-03 19:41:00,-10.0,-13.0,30.28,NW,320,0.0,0.0,86,-99.99,,,-99.99,,2013-01-04 02:41:00,
2013-01-03 19:51:00,-10.0,-13.0,30.29,NW,320,0.0,0.0,86,-99.99,,,-99.99,,2013-01-04 02:51:00,
2013-01-03 19:56:00,-10.0,-13.0,30.28,NW,320,0.0,0.0,87,-99.99,,,-99.99,,2013-01-04 02:56:00,
2013-01-03 20:06:00,-10.0,-13.0,30.29,NNW,330,6.0,0.0,88,-99.99,,,-99.99,,2013-01-04 03:06:00,
2013-01-03 20:16:00,-10.0,-12.0,30.29,NNW,330,0.0,6.0,89,-99.99,,,-99.99,,2013-01-04 03:16:00,
2013-01-03 20:26:00,-10.0,-13.0,30.29,NNW,330,7.0,8.0,89,-99.99,,,-99.99,,2013-01-04 03:26:00,
2013-01-03 20:31:00,-11.0,-13.0,30.29,NW,320,5.0,8.0,89,-99.99,,,-99.99,,2013-01-04 03:31:00,
2013-01-03 20:36:00,-11.0,-13.0,30.29,NNW,330,6.0,7.0,89,-99.99,,,-99.99,,2013-01-04 03:36:00,
2013-01-03 20:46:00,-11.0,-13.0,30.29,NW,320,11.0,11.0,90,-99.99,,,-99.99,,2013-01-04 03:46:00,
2013-01-03 20:56:00,-11.0,-12.0,30.29,NNW,340,11.0,12.0,91,-99.99,,,-99.99,,2013-01-04 03:56:00,
2013-01-03 21:01:00,-10.0,-12.0,30.29,NNE,30,8.0,12.0,92,-99.99,,,-99.99,,2013-01-04 04:01:00,
2013-01-03 21:06:00,-10.0,-11.0,30.29,North,0,12.0,12.0,92,-99.99,,,-99.99,,2013-01-04 04:06:00,
2013-01-03 21:11:00,-10.0,-12.0,30.29,North,0,10.0,12.0,92,-99.99,,,-99.99,,2013-01-04 04:11:00,
2013-01-03 21:16:00,-10.0,-12.0,30.29,North,0,11.0,11.0,91,-99.99,,,-99.99,,2013-01-04 04:16:00,
2013-01-03 21:21:00,-11.0,-13.0,30.29,North,350,8.0,11.0,91,-99.99,,,-99.99,,2013-01-04 04:21:00,
2013-01-03 21:31:00,-10.0,-12.0,30.29,North,0,6.0,9.0,91,-99.99,,,-99.99,,2013-01-04 04:31:00,
2013-01-03 21:41:00,-12.0,-14.0,30.30,NNW,330,0.0,7.0,90,-99.99,,,-99.99,,2013-01-04 04:41:00,
2013-01-03 21:51:00,-12.0,-14.0,30.30,NNW,330,0.0,4.0,90,-99.99,,,-99.99,,2013-01-04 04:51:00,
2013-01-03 22:06:00,-11.0,-13.0,30.29,NW,320,6.0,9.0,91,-99.99,,,-99.99,,2013-01-04 05:06:00,
2013-01-03 22:11:00,-11.0,-13.0,30.29,NNW,340,6.0,10.0,92,-99.99,,,-99.99,,2013-01-04 05:11:00,
2013-01-03 22:16:00,-11.0,-13.0,30.29,NNW,340,5.0,7.0,92,-99.99,,,-99.99,,2013-01-04 05:16:00,
2013-01-03 22:21:00,-11.0,-13.0,30.29,NW,320,10.0,10.0,91,-99.99,,,-99.99,,2013-01-04 05:21:00,
2013-01-03 22:26:00,-11.0,-13.0,30.29,NNW,330,10.0,11.0,92,-99.99,,,-99.99,,2013-01-04 05:26:00,
2013-01-03 22:31:00,-10.0,-12.0,30.29,NW,320,11.0,11.0,92,-99.99,,,-99.99,,2013-01-04 05:31:00,
2013-01-03 22:36:00,-10.0,-12.0,30.29,North,350,5.0,12.0,93,-99.99,,,-99.99,,2013-01-04 05:36:00,
2013-01-03 22:41:00,-10.0,-12.0,30.29,North,10,7.0,11.0,92,-99.99,,,-99.99,,2013-01-04 05:41:00,
2013-01-03 22:51:00,-11.0,-12.0,30.29,North,0,8.0,9.0,92,-99.99,,,-99.99,,2013-01-04 05:51:00,
2013-01-03 23:01:00,-11.0,-13.0,30.29,North,0,7.0,9.0,92,-99.99,,,-99.99,,2013-01-04 06:01:00,
2013-01-03 23:06:00,-11.0,-12.0,30.29,North,350,9.0,9.0,92,-99.99,,,-99.99,,2013-01-04 06:06:00,
2013-01-03 23:16:00,-10.0,-12.0,30.29,NNW,340,9.0,9.0,92,-99.99,,,-99.99,,2013-01-04 06:16:00,
2013-01-03 23:26:00,-10.0,-12.0,30.29,NNW,340,0.0,6.0,92,-99.99,,,-99.99,,2013-01-04 06:26:00,
2013-01-03 23:36:00,-10.0,-12.0,30.28,North,350,6.0,8.0,92,-99.99,,,-99.99,,2013-01-04 06:36:00,
2013-01-03 23:41:00,-10.0,-12.0,30.28,NW,320,7.0,9.0,92,-99.99,,,-99.99,,2013-01-04 06:41:00,
2013-01-03 23:51:00,-10.0,-12.0,30.27,North,10,5.0,12.0,92,-99.99,,,-99.99,,2013-01-04 06:51:00,
2013-01-03 23:56:00,-10.0,-12.0,30.27,North,0,9.0,10.0,92,-99.99,,,-99.99,,2013-01-04 06:56:00,